Content
SEND FEEDBACK

Daily
Averages
Monthly
Summary
Philippines

ANGELES CITY, PHILIPPINES


Home > Asia > Philippines
Elevation: 490 feet     Latitude: 15 11N     Longitude: 120 33E

WEATHER
 
SELECT A DAY
Number of Records: 92,159;   Date Range: 2/13/97 - 4/15/14
 
SHARE

PRINT THIS DATA

[ ← Previous Day ]
WEATHER ALMANAC - JUNE 29, 2013
[ Next Day → ]
[ °C ]   °F
We're sorry. There is no daily almanac available for Angeles City, Philippines on June 29, 2013.
WEATHER BY HOUR - JUNE 29, 2013
[ °C ]   °F
Local TimeTemperatureDewpointHumidityBarometerVisibilityWind DirectionWind SpeedGust SpeedPrecipitationEventsConditions
1:00 AM77.0 °F73.4 °F89 %29.80 in6.2 miNorth (10°)2.3 mph21.9 mphMostly Cloudy
2:00 AM77.0 °F73.4 °F89 %29.80 in6.2 miNorth (350°)3.5 mph21.9 mphMostly Cloudy
3:00 AM75.2 °F73.4 °F94 %29.80 in6.2 miWNW (300°)5.8 mphMostly Cloudy
4:00 AM75.2 °F73.4 °F94 %29.80 in6.2 miWNW (300°)4.6 mphMostly Cloudy
5:00 AM77.0 °F73.4 °F89 %29.77 in6.2 miNW (310°)4.6 mphMostly Cloudy
6:00 AM77.0 °F73.4 °F89 %29.80 in6.2 miNW (310°)4.6 mphMostly Cloudy
7:00 AM80.6 °F75.2 °F84 %29.83 in5.0 miNorth (360°)4.6 mphMostly Cloudy
8:00 AM82.4 °F75.2 °F79 %29.83 in5.0 miNorth (10°)4.6 mphMostly Cloudy
9:00 AM84.2 °F75.2 °F74 %29.83 in5.0 miNW (310°)8.1 mphMostly Cloudy
10:00 AM87.8 °F73.4 °F62 %29.83 in5.0 miNorth (10°)10.4 mphMostly Cloudy
11:00 AM89.6 °F73.4 °F59 %29.83 in5.0 miNorth (10°)6.9 mphMostly Cloudy
12:00 PM89.6 °F73.4 °F59 %29.80 in6.2 miNNE (30°)10.4 mphMostly Cloudy
1:00 PM91.4 °F75.2 °F59 %29.77 in6.2 miNE (50°)6.9 mphMostly Cloudy
2:00 PM91.4 °F75.2 °F59 %29.77 in6.2 miENE (60°)6.9 mphMostly Cloudy
3:00 PM91.4 °F75.2 °F59 %29.74 in6.2 miNE (40°)2.3 mphMostly Cloudy
4:00 PM91.4 °F73.4 °F55 %29.71 in6.2 miENE (70°)6.9 mphMostly Cloudy
5:00 PM89.6 °F75.2 °F62 %29.74 in6.2 miESE (120°)6.9 mphMostly Cloudy
6:00 PM82.4 °F75.2 °F79 %29.74 in6.2 miNorth (350°)16.1 mph27.6 mphOvercast
7:00 PM78.8 °F73.4 °F83 %29.77 in5.0 miVariable6.9 mphRain-ThunderstormLight Rain Showers
8:00 PM80.6 °F71.6 °F74 %29.77 in5.0 miNNW (330°)9.2 mphThunderstormThunderstorm
9:00 PM77.0 °F75.2 °F94 %29.80 in5.0 miNNW (340°)9.2 mphRainLight Rain Showers
10:00 PM78.8 °F75.2 °F89 %29.74 in5.0 miNW (320°)8.1 mphRainLight Rain
11:00 PM78.8 °F75.2 °F89 %29.74 in5.0 miNW (320°)8.1 mphRainLight Rain
Hourly data recorded from RPLC, located 0.24 miles away from Angeles City, Philippines







STORIES FROM OUR PARTNERS